Total_Precipitation_Accumulation
0.12 0.19 0.23 0.28 0.23 0.17 0.14 0.15 0.24 0.31 0.44 0.54 0.54 0.66 0.92 0.78 0.67 0.53 0.55 0.48 0.46 0.50 0.59 0.62 0.69 0.72 0.80 0.94 1.08 1.19 1.31 1.49 1.74 1.98 1.79 1.54 1.49 1.46 1.42 1.50 1.62 1.87 2.05 2.15
0.12 0.16 0.20 0.24 0.26 0.19 0.16 0.14 0.13 0.25 0.43 0.52 0.60 0.65 0.74 0.73 0.74 0.66 0.65 0.64 0.61 0.68 0.70 0.74 0.80 0.79 0.77 0.75 0.89 1.09 1.23 1.39 1.57 1.68 1.51 1.31 1.20 1.22 1.26 1.34 1.52 1.70 1.86 1.98
0.21 0.19 0.22 0.27 0.26 0.22 0.19 0.20 0.21 0.33 0.45 0.50 0.64 0.61 0.64 0.77 0.84 0.80 0.61 0.64 0.68 0.67 0.73 0.74 0.77 0.79 0.76 0.73 0.91 1.16 1.23 1.27 1.40 1.52 1.51 1.38 1.18 1.16 1.22 1.31 1.47 1.58 1.63 1.70
0.35 0.39 0.44 0.36 0.32 0.28 0.27 0.31 0.31 0.35 0.41 0.51 0.69 0.65 0.53 0.54 0.62 0.71 0.73 0.73 0.72 0.72 0.73 0.70 0.68 0.73 0.73 0.76 0.92 1.11 1.19 1.27 1.47 1.64 1.63 1.55 1.46 1.39 1.44 1.52 1.52 1.52 1.57 1.61
0.56 0.57 0.48 0.46 0.46 0.46 0.49 0.60 0.53 0.48 0.47 0.52 0.55 0.62 0.68 0.59 0.53 0.60 0.65 0.77 0.78 0.74 0.74 0.75 0.75 0.77 0.79 0.84 1.01 1.22 1.33 1.43 1.53 1.68 1.74 1.74 1.80 1.84 1.88 1.86 1.74 1.68 1.71 1.77
0.65 0.74 0.73 0.70 0.59 0.52 0.64 1.01 0.91 0.73 0.61 0.59 0.60 0.88 1.02 0.86 0.70 0.68 0.64 0.75 0.86 0.86 0.78 0.77 0.80 0.91 1.06 1.15 1.25 1.34 1.49 1.63 1.68 1.86 1.96 1.93 2.01 2.11 2.18 2.21 2.14 2.12 2.04 1.94
0.74 0.83 0.87 0.80 0.61 0.62 1.11 1.43 1.09 0.92 0.83 0.78 0.85 0.87 0.89 0.79 0.71 0.74 0.69 0.72 0.81 0.97 0.88 0.82 0.86 1.04 1.25 1.34 1.45 1.51 1.60 1.70 1.80 2.00 2.17 2.29 2.43 2.52 2.49 2.46 2.48 2.42 2.21 2.08
0.94 1.13 1.18 0.79 0.76 1.04 1.26 1.12 1.11 1.12 1.17 1.15 1.01 0.80 0.72 0.71 0.65 0.67 0.66 0.68 0.69 0.75 0.82 0.85 0.93 1.14 1.34 1.38 1.41 1.57 1.69 1.83 2.02 2.14 2.19 2.27 2.56 2.65 2.62 2.55 2.44 2.31 2.19 2.00
1.13 1.28 1.07 0.86 0.94 0.97 1.08 1.17 1.21 1.22 1.24 1.15 1.01 0.86 0.76 0.73 0.65 0.62 0.60 0.65 0.70 0.73 0.82 0.92 1.04 1.24 1.52 1.57 1.53 1.54 1.69 1.90 2.10 2.22 2.37 2.51 2.63 2.57 2.51 2.50 2.39 2.25 2.13 1.96
1.27 1.27 1.03 0.99 1.02 0.97 1.03 1.08 1.19 1.13 1.07 1.04 1.00 0.88 0.77 0.68 0.59 0.58 0.62 0.66 0.69 0.74 0.83 0.96 1.13 1.28 1.52 1.49 1.45 1.49 1.53 1.68 1.83 1.92 1.99 2.12 2.30 2.26 2.16 2.16 2.19 2.15 2.08 2.00
1.40 1.41 1.31 1.24 1.23 1.11 1.00 0.95 0.92 0.92 0.92 0.95 0.95 0.93 0.78 0.67 0.60 0.55 0.57 0.61 0.66 0.79 0.96 1.06 1.17 1.27 1.30 1.30 1.34 1.37 1.35 1.41 1.49 1.57 1.66 1.78 1.88 1.96 1.92 1.90 1.85 1.86 1.83 1.82
1.57 1.40 1.37 1.51 1.36 1.22 1.04 0.95 0.88 0.84 0.84 0.87 0.88 0.89 0.77 0.69 0.66 0.56 0.52 0.57 0.67 0.78 0.90 1.00 1.15 1.33 1.38 1.34 1.39 1.43 1.39 1.36 1.36 1.41 1.48 1.52 1.60 1.61 1.58 1.47 1.36 1.27 1.21 1.21
1.26 1.18 1.18 1.26 1.20 1.11 1.03 1.03 1.06 1.00 0.92 0.86 0.86 0.83 0.73 0.68 0.65 0.59 0.58 0.62 0.71 0.72 0.78 0.88 1.02 1.21 1.35 1.48 1.50 1.53 1.48 1.40 1.37 1.31 1.30 1.36 1.41 1.46 1.46 1.30 1.11 0.97 0.88 0.84
1.14 1.08 1.18 1.18 1.14 1.05 1.01 1.05 1.09 1.00 0.96 0.92 0.90 0.82 0.75 0.70 0.67 0.67 0.62 0.63 0.68 0.70 0.71 0.83 0.95 1.04 1.15 1.35 1.51 1.55 1.51 1.44 1.35 1.28 1.22 1.23 1.25 1.27 1.34 1.40 1.30 1.11 0.91 0.77
1.36 1.19 1.18 1.19 1.20 1.12 0.99 1.00 1.00 0.93 0.86 0.85 0.83 0.81 0.75 0.71 0.65 0.65 0.61 0.59 0.64 0.70 0.72 0.81 0.92 0.98 1.10 1.23 1.32 1.34 1.33 1.28 1.20 1.18 1.18 1.17 1.18 1.18 1.17 1.25 1.25 1.20 1.05 0.88
1.34 1.20 1.07 1.09 1.14 1.15 1.06 0.97 0.94 0.92 0.86 0.78 0.76 0.70 0.65 0.60 0.57 0.57 0.56 0.57 0.66 0.73 0.77 0.89 0.97 1.01 1.14 1.25 1.30 1.30 1.29 1.24 1.15 1.13 1.17 1.19 1.17 1.17 1.14 1.19 1.20 1.20 1.09 0.91
1.33 1.25 1.07 0.93 0.91 0.97 0.99 0.89 0.81 0.79 0.79 0.73 0.69 0.67 0.61 0.57 0.58 0.56 0.52 0.53 0.61 0.71 0.80 0.96 1.03 1.05 1.16 1.29 1.38 1.35 1.28 1.20 1.07 1.03 1.05 1.09 1.11 1.10 1.07 1.09 1.08 1.10 1.00 0.81
1.09 1.07 1.00 0.90 0.81 0.80 0.86 0.82 0.76 0.75 0.77 0.69 0.63 0.66 0.67 0.69 0.78 0.80 0.75 0.69 0.71 0.70 0.73 0.85 0.94 1.02 1.11 1.22 1.29 1.31 1.29 1.21 1.07 0.93 0.89 0.94 0.98 1.00 1.00 1.00 0.99 0.99 0.91 0.72
0.94 0.99 0.95 0.87 0.82 0.78 0.85 0.83 0.80 0.79 0.75 0.68 0.62 0.62 0.68 0.78 0.89 0.95 0.93 0.92 0.95 0.91 0.83 0.80 0.87 0.91 1.01 1.08 1.12 1.18 1.16 1.09 0.98 0.82 0.78 0.84 0.90 0.97 0.97 0.91 0.91 0.91 0.82 0.70
0.97 1.02 0.95 0.87 0.92 0.93 0.95 0.91 0.85 0.81 0.74 0.69 0.70 0.73 0.77 0.83 0.93 1.00 0.99 0.97 0.96 0.99 0.92 0.82 0.79 0.80 0.85 0.91 0.95 0.99 0.99 0.99 0.96 0.79 0.73 0.85 0.93 0.99 0.95 0.86 0.86 0.83 0.74 0.72
0.93 0.94 0.89 0.78 0.77 0.78 0.76 0.75 0.75 0.75 0.78 0.82 0.93 1.04 1.07 1.00 1.00 1.11 1.19 1.07 0.89 0.89 0.87 0.82 0.73 0.73 0.74 0.84 0.87 0.90 0.89 0.89 0.92 0.83 0.77 0.85 0.93 0.96 0.94 0.86 0.81 0.74 0.68 0.70
0.86 0.87 0.86 0.79 0.72 0.65 0.58 0.57 0.63 0.70 0.79 0.88 0.96 1.09 1.20 1.23 1.24 1.20 1.10 1.07 0.98 0.95 0.83 0.73 0.66 0.63 0.63 0.68 0.77 0.82 0.81 0.80 0.83 0.82 0.79 0.85 0.93 0.94 0.92 0.84 0.77 0.69 0.66 0.67
0.82 0.82 0.81 0.74 0.73 0.68 0.61 0.59 0.58 0.62 0.71 0.80 0.92 1.13 1.26 1.28 1.35 1.48 1.30 0.99 0.90 0.92 0.83 0.71 0.65 0.61 0.55 0.50 0.63 0.73 0.74 0.79 0.81 0.81 0.78 0.76 0.76 0.79 0.78 0.71 0.65 0.65 0.68 0.70
0.85 0.80 0.84 0.81 0.74 0.64 0.62 0.62 0.63 0.66 0.69 0.71 0.79 0.99 1.21 1.35 1.29 1.18 1.15 1.04 0.89 0.80 0.74 0.70 0.60 0.56 0.53 0.48 0.55 0.63 0.68 0.72 0.70 0.69 0.67 0.65 0.68 0.71 0.68 0.65 0.63 0.64 0.69 0.71
0.85 0.80 0.80 0.84 0.82 0.78 0.74 0.73 0.74 0.74 0.77 0.77 0.75 0.79 0.91 1.12 1.28 1.12 0.93 0.87 0.82 0.71 0.68 0.67 0.59 0.53 0.47 0.44 0.46 0.53 0.60 0.63 0.62 0.61 0.60 0.63 0.67 0.66 0.60 0.58 0.59 0.62 0.66 0.69
0.83 0.81 0.81 0.81 0.82 0.83 0.84 0.89 0.97 0.96 0.98 1.03 0.93 0.85 0.85 0.93 1.03 1.03 0.90 0.79 0.73 0.69 0.62 0.63 0.61 0.56 0.51 0.50 0.48 0.51 0.57 0.63 0.65 0.62 0.58 0.62 0.61 0.59 0.59 0.60 0.57 0.57 0.60 0.60
0.82 0.76 0.76 0.79 0.82 0.83 0.91 1.01 1.13 1.18 1.23 1.30 1.23 1.04 0.93 0.88 0.92 0.93 0.87 0.81 0.77 0.72 0.69 0.66 0.62 0.60 0.57 0.53 0.49 0.48 0.54 0.62 0.65 0.66 0.66 0.67 0.69 0.68 0.64 0.61 0.56 0.52 0.52 0.48